| time (UTC) | temp F | wind direction | speed knots | gust knots | rain 1hr in | rain 24hr in | rain mn in | humidity % | barometer mb |
| 20260906231143 | 77 | 224 | 2.6 | 3.5 | 0.00 | 0.00 | 0.00 | 40 | 1025.8 |
| 20260906230641 | 78 | 265 | 2.6 | 2.6 | 0.00 | 0.00 | 0.00 | 40 | 1025.5 |
| 20260906230136 | 77 | 256 | 0.0 | 3.5 | 0.00 | 0.00 | 0.00 | 38 | 1025.5 |
| 20260906225636 | 78 | 169 | 2.6 | 7.8 | 0.00 | 0.00 | 0.00 | 37 | 1025.9 |
| 20260906225133 | 78 | 162 | 2.6 | 2.6 | 0.00 | 0.00 | 0.00 | 38 | 1025.7 |
| 20260906224632 | 78 | 192 | 3.5 | 4.3 | 0.00 | 0.00 | 0.00 | 39 | 1025.8 |
| 20260906224129 | 77 | 225 | 1.7 | 5.2 | 0.00 | 0.00 | 0.00 | 39 | 1025.9 |
| 20260906223625 | 76 | 216 | 2.6 | 3.5 | 0.00 | 0.00 | 0.00 | 42 | 1025.8 |
| 20260906223125 | 76 | 209 | 0.9 | 4.3 | 0.00 | 0.00 | 0.00 | 41 | 1026.1 |
| 20260906222623 | 76 | 245 | 1.7 | 4.3 | 0.00 | 0.00 | 0.00 | 42 | 1025.9 |
| 20260906222122 | 76 | 183 | 4.3 | 7.8 | 0.00 | 0.00 | 0.00 | 42 | 1026.1 |
| 20260906221620 | 75 | 240 | 2.6 | 4.3 | 0.00 | 0.00 | 0.00 | 44 | 1026.1 |
| 20260906221115 | 73 | 228 | 1.7 | 2.6 | 0.00 | 0.00 | 0.00 | 47 | 1026.1 |
| 20260906220611 | 74 | 279 | 0.9 | 5.2 | 0.00 | 0.00 | 0.00 | 45 | 1026.5 |
| 20260906220106 | 75 | 201 | 2.6 | 4.3 | 0.00 | 0.00 | 0.00 | 44 | 1026.6 |
| 20260906215605 | 75 | 150 | 2.6 | 4.3 | 0.00 | 0.00 | 0.00 | 42 | 1026.5 |
| 20260906215103 | 74 | 192 | 1.7 | 3.5 | 0.00 | 0.00 | 0.00 | 43 | 1026.3 |
| 20260906214601 | 74 | 208 | 1.7 | 3.5 | 0.00 | 0.00 | 0.00 | 42 | 1026.3 |
| 20260906214057 | 76 | 207 | 3.5 | 4.3 | 0.00 | 0.00 | 0.00 | 42 | 1026.8 |
| 20260906213556 | 76 | 202 | 3.5 | 5.2 | 0.00 | 0.00 | 0.00 | 40 | 1026.5 |
| 20260906213051 | 77 | 138 | 3.5 | 5.2 | 0.00 | 0.00 | 0.00 | 40 | 1026.8 |
| 20260906212543 | 75 | 183 | 3.5 | 5.2 | 0.00 | 0.00 | 0.00 | 42 | 1026.7 |
| 20260906212040 | 75 | 177 | 3.5 | 5.2 | 0.00 | 0.00 | 0.00 | 41 | 1026.8 |
| 20260906211539 | 74 | 204 | 2.6 | 5.2 | 0.00 | 0.00 | 0.00 | 42 | 1026.8 |
| 20260906211034 | 75 | 169 | 2.6 | 5.2 | 0.00 | 0.00 | 0.00 | 41 | 1026.8 |
| 20260906210530 | 76 | 181 | 2.6 | 7.8 | 0.00 | 0.00 | 0.00 | 40 | 1026.6 |
| 20260906210029 | 77 | 172 | 2.6 | 4.3 | 0.00 | 0.00 | 0.00 | 38 | 1026.7 |
| 20260906205525 | 75 | 196 | 1.7 | 5.2 | 0.00 | 0.00 | 0.00 | 41 | 1026.8 |
| 20260906205021 | 76 | 146 | 1.7 | 6.1 | 0.00 | 0.00 | 0.00 | 41 | 1027.1 |
| 20260906204521 | 78 | 181 | 1.7 | 4.3 | 0.00 | 0.00 | 0.00 | 38 | 1026.8 |
| 20260906204021 | 78 | 228 | 3.5 | 5.2 | 0.00 | 0.00 | 0.00 | 39 | 1027.1 |
| 20260906203515 | 77 | 199 | 2.6 | 5.2 | 0.00 | 0.00 | 0.00 | 40 | 1027.1 |
| 20260906203010 | 78 | 188 | 2.6 | 7.8 | 0.00 | 0.00 | 0.00 | 38 | 1026.7 |
| 20260906202506 | 79 | 161 | 2.6 | 5.2 | 0.00 | 0.00 | 0.00 | 37 | 1026.7 |
| 20260906202002 | 78 | 194 | 6.1 | 7.0 | 0.00 | 0.00 | 0.00 | 38 | 1026.8 |
| 20260906201456 | 77 | 182 | 1.7 | 7.0 | 0.00 | 0.00 | 0.00 | 38 | 1026.8 |
| 20260906200956 | 76 | 225 | 3.5 | 7.0 | 0.00 | 0.00 | 0.00 | 39 | 1026.7 |
| 20260906200452 | 75 | 242 | 2.6 | 3.5 | 0.00 | 0.00 | 0.00 | 41 | 1027.2 |
| 20260906195952 | 77 | 214 | 1.7 | 5.2 | 0.00 | 0.00 | 0.00 | 38 | 1027.0 |
| 20260906195448 | 76 | 183 | 3.5 | 5.2 | 0.00 | 0.00 | 0.00 | 38 | 1027.2 |
| 20260906194944 | 76 | 207 | 5.2 | 5.2 | 0.00 | 0.00 | 0.00 | 39 | 1027.2 |
| 20260906194440 | 76 | 240 | 3.5 | 4.3 | 0.00 | 0.00 | 0.00 | 40 | 1027.1 |
| 20260906193935 | 76 | 180 | 4.3 | 10.4 | 0.00 | 0.00 | 0.00 | 39 | 1027.1 |
| 20260906193430 | 75 | 166 | 2.6 | 8.7 | 0.00 | 0.00 | 0.00 | 41 | 1027.1 |
| 20260906192926 | 77 | 214 | 3.5 | 8.7 | 0.00 | 0.00 | 0.00 | 36 | 1027.1 |
| 20260906192426 | 78 | 190 | 2.6 | 3.5 | 0.00 | 0.00 | 0.00 | 35 | 1027.0 |
| 20260906191925 | 77 | 211 | 2.6 | 5.2 | 0.00 | 0.00 | 0.00 | 36 | 1027.6 |
| 20260906191420 | 76 | 277 | 0.9 | 3.5 | 0.00 | 0.00 | 0.00 | 37 | 1027.1 |
| 20260906190919 | 77 | 158 | 5.2 | 5.2 | 0.00 | 0.00 | 0.00 | 35 | 1027.1 |
| 20260906190418 | 77 | 149 | 5.2 | 7.0 | 0.00 | 0.00 | 0.00 | 34 | 1027.1 |
| 20260906185919 | 76 | 141 | 4.3 | 6.1 | 0.00 | 0.00 | 0.00 | 32 | 1027.5 |
| 20260906185418 | 77 | 202 | 2.6 | 7.8 | 0.00 | 0.00 | 0.00 | 31 | 1027.2 |
| 20260906184917 | 77 | 165 | 3.5 | 7.0 | 0.00 | 0.00 | 0.00 | 32 | 1027.5 |
| 20260906184413 | 77 | 148 | 6.1 | 8.7 | 0.00 | 0.00 | 0.00 | 32 | 1027.5 |
| 20260906183908 | 77 | 178 | 4.3 | 5.2 | 0.00 | 0.00 | 0.00 | 34 | 1027.7 |
| 20260906183404 | 77 | 170 | 3.5 | 4.3 | 0.00 | 0.00 | 0.00 | 34 | 1027.7 |
| 20260906182859 | 77 | 194 | 3.5 | 6.1 | 0.00 | 0.00 | 0.00 | 34 | 1028.1 |
| 20260906182354 | 77 | 183 | 3.5 | 6.1 | 0.00 | 0.00 | 0.00 | 34 | 1028.0 |
| 20260906181849 | 77 | 221 | 1.7 | 7.0 | 0.00 | 0.00 | 0.00 | 37 | 1028.1 |
| 20260906181346 | 77 | 211 | 2.6 | 7.8 | 0.00 | 0.00 | 0.00 | 35 | 1028.1 |
| 20260906180841 | 76 | 243 | 2.6 | 5.2 | 0.00 | 0.00 | 0.00 | 37 | 1028.3 |
| 20260906180336 | 76 | 217 | 1.7 | 9.6 | 0.00 | 0.00 | 0.00 | 36 | 1028.3 |
| 20260906175833 | 76 | 158 | 4.3 | 8.7 | 0.00 | 0.00 | 0.00 | 36 | 1028.5 |
| 20260906175329 | 75 | 177 | 0.9 | 9.6 | 0.00 | 0.00 | 0.00 | 35 | 1028.4 |
| 20260906174828 | 74 | 12 | 0.0 | 4.3 | 0.00 | 0.00 | 0.00 | 41 | 1028.8 |
| 20260906174327 | 75 | 176 | 2.6 | 5.2 | 0.00 | 0.00 | 0.00 | 37 | 1028.5 |
| 20260906173822 | 75 | 159 | 4.3 | 7.0 | 0.00 | 0.00 | 0.00 | 38 | 1028.9 |
| 20260906173318 | 75 | 152 | 4.3 | 7.0 | 0.00 | 0.00 | 0.00 | 38 | 1028.8 |
| 20260906172817 | 75 | 217 | 1.7 | 7.0 | 0.00 | 0.00 | 0.00 | 38 | 1029.0 |
| 20260906172314 | 75 | 170 | 2.6 | 7.8 | 0.00 | 0.00 | 0.00 | 37 | 1029.2 |
| 20260906171814 | 74 | 188 | 1.7 | 3.5 | 0.00 | 0.00 | 0.00 | 40 | 1029.0 |
| 20260906171308 | 74 | 187 | 1.7 | 2.6 | 0.00 | 0.00 | 0.00 | 40 | 1029.4 |
| 20260906170804 | 73 | 27 | 0.9 | 3.5 | 0.00 | 0.00 | 0.00 | 43 | 1029.7 |
| 20260906170300 | 74 | 54 | 0.9 | 4.3 | 0.00 | 0.00 | 0.00 | 44 | 1029.4 |
| 20260906165756 | 73 | 209 | 2.6 | 4.3 | 0.00 | 0.00 | 0.00 | 42 | 1029.3 |
| 20260906165256 | 73 | 186 | 2.6 | 3.5 | 0.00 | 0.00 | 0.00 | 42 | 1029.4 |
| 20260906164756 | 72 | 205 | 1.7 | 4.3 | 0.00 | 0.00 | 0.00 | 42 | 1029.6 |
| 20260906164256 | 72 | 224 | 3.5 | 3.5 | 0.00 | 0.00 | 0.00 | 43 | 1029.6 |
| 20260906163751 | 72 | 218 | 1.7 | 3.5 | 0.00 | 0.00 | 0.00 | 42 | 1029.4 |
| 20260906163248 | 71 | 161 | 1.7 | 4.3 | 0.00 | 0.00 | 0.00 | 42 | 1029.8 |
| 20260906162745 | 71 | 175 | 2.6 | 2.6 | 0.00 | 0.00 | 0.00 | 45 | 1029.7 |
| 20260906162239 | 70 | 158 | 2.6 | 3.5 | 0.00 | 0.00 | 0.00 | 45 | 1029.4 |
| 20260906161739 | 68 | 200 | 1.7 | 3.5 | 0.00 | 0.00 | 0.00 | 48 | 1029.7 |
| 20260906161238 | 68 | 75 | 0.9 | 1.7 | 0.00 | 0.00 | 0.00 | 51 | 1029.6 |
| 20260906160738 | 68 | 293 | 0.0 | 1.7 | 0.00 | 0.00 | 0.00 | 53 | 1029.4 |
| 20260906160237 | 68 | 145 | 2.6 | 4.3 | 0.00 | 0.00 | 0.00 | 52 | 1029.6 |
| 20260906155734 | 67 | 166 | 2.6 | 5.2 | 0.00 | 0.00 | 0.00 | 51 | 1029.4 |
| 20260906155230 | 66 | 99 | 0.9 | 3.5 | 0.00 | 0.00 | 0.00 | 52 | 1029.4 |
| 20260906154725 | 65 | 138 | 0.0 | 3.5 | 0.00 | 0.00 | 0.00 | 56 | 1029.7 |
| 20260906154221 | 65 | 62 | 0.9 | 2.6 | 0.00 | 0.00 | 0.00 | 59 | 1029.4 |
| 20260906153719 | 64 | 67 | 1.7 | 3.5 | 0.00 | 0.00 | 0.00 | 57 | 1029.6 |
| 20260906153214 | 63 | 41 | 1.7 | 2.6 | 0.00 | 0.00 | 0.00 | 60 | 1029.7 |
| 20260906152709 | 62 | 126 | 0.9 | 2.6 | 0.00 | 0.00 | 0.00 | 63 | 1029.6 |
| 20260906152208 | 62 | 86 | 0.9 | 1.7 | 0.00 | 0.00 | 0.00 | 63 | 1029.6 |
| 20260906151703 | 61 | 70 | 0.0 | 1.7 | 0.00 | 0.00 | 0.00 | 62 | 1029.7 |
| 20260906151159 | 60 | 101 | 0.9 | 1.7 | 0.00 | 0.00 | 0.00 | 65 | 1029.4 |
| 20260906150654 | 60 | 88 | 0.9 | 1.7 | 0.00 | 0.00 | 0.00 | 64 | 1029.4 |
| 20260906150149 | 59 | 47 | 0.9 | 1.7 | 0.00 | 0.00 | 0.00 | 64 | 1029.7 |
| 20260906145648 | 59 | 81 | 1.7 | 2.6 | 0.00 | 0.00 | 0.00 | 66 | 1029.6 |
| 20260906145143 | 58 | 75 | 0.9 | 2.6 | 0.00 | 0.00 | 0.00 | 68 | 1029.7 |
| 20260906144637 | 57 | 65 | 1.7 | 2.6 | 0.00 | 0.00 | 0.00 | 67 | 1029.4 |
| 20260906144132 | 57 | 98 | 1.7 | 1.7 | 0.00 | 0.00 | 0.00 | 69 | 1029.6 |
| 20260906143632 | 56 | 96 | 0.9 | 1.7 | 0.00 | 0.00 | 0.00 | 71 | 1029.6 |
| 20260906143129 | 56 | 95 | 1.7 | 1.7 | 0.00 | 0.00 | 0.00 | 72 | 1029.3 |
| 20260906142628 | 55 | 95 | 1.7 | 3.5 | 0.00 | 0.00 | 0.00 | 75 | 1029.3 |
| 20260906142124 | 55 | 122 | 1.7 | 2.6 | 0.00 | 0.00 | 0.00 | 78 | 1029.3 |
| 20260906141622 | 54 | 121 | 1.7 | 2.6 | 0.00 | 0.00 | 0.00 | 80 | 1029.3 |
| 20260906141118 | 53 | 91 | 1.7 | 3.5 | 0.00 | 0.00 | 0.00 | 82 | 1029.2 |
| 20260906140617 | 52 | 80 | 3.5 | 3.5 | 0.00 | 0.00 | 0.00 | 86 | 1029.3 |
| 20260906140112 | 52 | 105 | 1.7 | 2.6 | 0.00 | 0.00 | 0.00 | 88 | 1029.2 |
| 20260906135609 | 51 | 78 | 1.7 | 3.5 | 0.00 | 0.00 | 0.00 | 92 | 1029.2 |
| 20260906135105 | 50 | 84 | 2.6 | 2.6 | 0.00 | 0.00 | 0.00 | 93 | 1029.0 |
| 20260906134600 | 49 | 86 | 2.6 | 3.5 | 0.00 | 0.00 | 0.00 | 94 | 1029.2 |
| 20260906134101 | 49 | 107 | 1.7 | 3.5 | 0.00 | 0.00 | 0.00 | 94 | 1029.3 |
| 20260906133556 | 49 | 99 | 2.6 | 3.5 | 0.00 | 0.00 | 0.00 | 94 | 1029.3 |
| 20260906133051 | 48 | 113 | 1.7 | 2.6 | 0.00 | 0.00 | 0.00 | 94 | 1029.3 |
| 20260906132547 | 48 | 112 | 2.6 | 4.3 | 0.00 | 0.00 | 0.00 | 95 | 1029.3 |
| 20260906132042 | 48 | 110 | 2.6 | 3.5 | 0.00 | 0.00 | 0.00 | 94 | 1028.9 |
| 20260906131537 | 48 | 101 | 3.5 | 4.3 | 0.00 | 0.00 | 0.00 | 94 | 1029.0 |
| 20260906131032 | 48 | 110 | 2.6 | 4.3 | 0.00 | 0.00 | 0.00 | 93 | 1028.7 |
| 20260906130532 | 47 | 110 | 3.5 | 3.5 | 0.00 | 0.00 | 0.00 | 93 | 1029.2 |
| 20260906130027 | 47 | 107 | 3.5 | 4.3 | 0.00 | 0.00 | 0.00 | 93 | 1028.9 |
| 20260906125525 | 47 | 106 | 2.6 | 3.5 | 0.00 | 0.00 | 0.00 | 93 | 1029.0 |
| 20260906125025 | 47 | 96 | 1.7 | 3.5 | 0.00 | 0.00 | 0.00 | 93 | 1029.2 |
| 20260906124520 | 48 | 110 | 3.5 | 4.3 | 0.00 | 0.00 | 0.00 | 93 | 1028.9 |
| 20260906124015 | 48 | 99 | 3.5 | 5.2 | 0.00 | 0.00 | 0.00 | 93 | 1028.9 |
| 20260906123514 | 47 | 101 | 3.5 | 4.3 | 0.00 | 0.00 | 0.00 | 93 | 1028.7 |
| 20260906123010 | 48 | 102 | 3.5 | 4.3 | 0.00 | 0.00 | 0.00 | 93 | 1028.8 |
| 20260906122503 | 48 | 104 | 3.5 | 4.3 | 0.00 | 0.00 | 0.00 | 94 | 1028.9 |
| 20260906122000 | 47 | 99 | 2.6 | 3.5 | 0.00 | 0.00 | 0.00 | 94 | 1028.9 |
| 20260906121456 | 47 | 108 | 3.5 | 3.5 | 0.00 | 0.00 | 0.00 | 94 | 1028.9 |
| 20260906120952 | 47 | 105 | 3.5 | 3.5 | 0.00 | 0.00 | 0.00 | 94 | 1029.2 |
| 20260906120447 | 47 | 88 | 2.6 | 4.3 | 0.00 | 0.00 | 0.00 | 94 | 1028.9 |
| 20260906115943 | 48 | 125 | 3.5 | 5.2 | 0.00 | 0.00 | 0.00 | 94 | 1029.0 |
| 20260906115438 | 48 | 111 | 2.6 | 4.3 | 0.00 | 0.00 | 0.00 | 94 | 1028.8 |
| 20260906114939 | 48 | 107 | 3.5 | 5.2 | 0.00 | 0.00 | 0.00 | 95 | 1028.9 |
| 20260906114438 | 48 | 113 | 3.5 | 4.3 | 0.00 | 0.00 | 0.00 | 95 | 1029.2 |
| 20260906113935 | 48 | 110 | 3.5 | 3.5 | 0.00 | 0.00 | 0.00 | 95 | 1028.9 |
| 20260906113433 | 48 | 116 | 2.6 | 3.5 | 0.00 | 0.00 | 0.00 | 95 | 1029.2 |
| 20260906112929 | 48 | 105 | 3.5 | 3.5 | 0.00 | 0.00 | 0.00 | 95 | 1028.8 |
| 20260906112424 | 48 | 108 | 2.6 | 4.3 | 0.00 | 0.00 | 0.00 | 95 | 1028.9 |
| 20260906111920 | 48 | 108 | 3.5 | 3.5 | 0.00 | 0.00 | 0.00 | 95 | 1028.8 |
| 20260906111419 | 48 | 114 | 3.5 | 4.3 | 0.00 | 0.00 | 0.00 | 95 | 1028.7 |
| 20260906110914 | 48 | 121 | 2.6 | 3.5 | 0.00 | 0.00 | 0.00 | 95 | 1029.0 |
| 20260906110409 | 48 | 117 | 2.6 | 3.5 | 0.00 | 0.00 | 0.00 | 95 | 1028.4 |
| 20260906105909 | 48 | 105 | 2.6 | 4.3 | 0.00 | 0.00 | 0.00 | 95 | 1028.8 |
| 20260906105404 | 48 | 117 | 2.6 | 3.5 | 0.00 | 0.00 | 0.00 | 95 | 1028.7 |
| 20260906104900 | 48 | 112 | 2.6 | 4.3 | 0.00 | 0.00 | 0.00 | 95 | 1028.7 |
| 20260906104358 | 48 | 122 | 1.7 | 3.5 | 0.00 | 0.00 | 0.00 | 95 | 1028.8 |
| 20260906103857 | 48 | 109 | 2.6 | 3.5 | 0.00 | 0.00 | 0.00 | 95 | 1028.5 |
| 20260906103356 | 48 | 111 | 2.6 | 3.5 | 0.00 | 0.00 | 0.00 | 95 | 1028.5 |
| 20260906102852 | 48 | 124 | 2.6 | 3.5 | 0.00 | 0.00 | 0.00 | 95 | 1028.8 |
| 20260906102351 | 48 | 108 | 3.5 | 3.5 | 0.00 | 0.00 | 0.00 | 96 | 1028.8 |
| 20260906101846 | 48 | 114 | 2.6 | 3.5 | 0.00 | 0.00 | 0.00 | 95 | 1028.5 |
| 20260906101341 | 48 | 105 | 2.6 | 3.5 | 0.00 | 0.00 | 0.00 | 95 | 1028.9 |
| 20260906100837 | 48 | 116 | 3.5 | 3.5 | 0.00 | 0.00 | 0.00 | 95 | 1029.0 |
| 20260906100336 | 48 | 126 | 3.5 | 4.3 | 0.00 | 0.00 | 0.00 | 95 | 1028.8 |
| 20260906095831 | 48 | 117 | 2.6 | 3.5 | 0.00 | 0.00 | 0.00 | 95 | 1028.8 |
| 20260906095327 | 48 | 147 | 4.3 | 4.3 | 0.00 | 0.00 | 0.00 | 96 | 1028.8 |
| 20260906094826 | 48 | 129 | 3.5 | 4.3 | 0.00 | 0.00 | 0.00 | 96 | 1028.5 |
| 20260906094321 | 48 | 128 | 3.5 | 4.3 | 0.00 | 0.00 | 0.00 | 96 | 1028.8 |
| 20260906093817 | 48 | 113 | 2.6 | 4.3 | 0.00 | 0.00 | 0.00 | 96 | 1028.8 |
| 20260906093313 | 48 | 113 | 2.6 | 3.5 | 0.00 | 0.00 | 0.00 | 96 | 1028.8 |
| 20260906092808 | 48 | 122 | 2.6 | 3.5 | 0.00 | 0.00 | 0.00 | 96 | 1029.2 |
| 20260906092308 | 48 | 117 | 3.5 | 4.3 | 0.00 | 0.00 | 0.00 | 96 | 1029.0 |
| 20260906091804 | 48 | 115 | 2.6 | 3.5 | 0.00 | 0.00 | 0.00 | 96 | 1028.9 |
| 20260906091300 | 48 | 125 | 2.6 | 3.5 | 0.00 | 0.00 | 0.00 | 96 | 1028.8 |
| 20260906090756 | 48 | 113 | 2.6 | 3.5 | 0.00 | 0.00 | 0.00 | 96 | 1029.0 |
| 20260906090255 | 48 | 130 | 2.6 | 3.5 | 0.00 | 0.00 | 0.00 | 97 | 1028.9 |
| 20260906085754 | 48 | 120 | 3.5 | 3.5 | 0.00 | 0.00 | 0.00 | 97 | 1028.8 |
| 20260906085253 | 48 | 120 | 2.6 | 3.5 | 0.00 | 0.00 | 0.00 | 97 | 1028.8 |
| 20260906084749 | 49 | 132 | 2.6 | 3.5 | 0.00 | 0.00 | 0.00 | 97 | 1028.8 |
| 20260906084248 | 49 | 133 | 3.5 | 3.5 | 0.00 | 0.00 | 0.00 | 97 | 1028.9 |
| 20260906083743 | 49 | 136 | 3.5 | 3.5 | 0.00 | 0.00 | 0.00 | 96 | 1029.0 |
| 20260906083239 | 49 | 137 | 3.5 | 3.5 | 0.00 | 0.00 | 0.00 | 97 | 1028.9 |
| 20260906082733 | 49 | 107 | 2.6 | 3.5 | 0.00 | 0.00 | 0.00 | 96 | 1029.0 |
| 20260906082228 | 49 | 115 | 1.7 | 3.5 | 0.00 | 0.00 | 0.00 | 96 | 1028.7 |
| 20260906081725 | 49 | 118 | 2.6 | 3.5 | 0.00 | 0.00 | 0.00 | 96 | 1028.7 |
| 20260906081219 | 49 | 125 | 3.5 | 3.5 | 0.00 | 0.00 | 0.00 | 96 | 1028.8 |
| 20260906080716 | 49 | 107 | 3.5 | 3.5 | 0.00 | 0.00 | 0.00 | 96 | 1028.9 |
| 20260906080212 | 49 | 113 | 3.5 | 3.5 | 0.00 | 0.00 | 0.00 | 96 | 1029.0 |
| 20260906075712 | 49 | 118 | 2.6 | 3.5 | 0.00 | 0.00 | 0.00 | 96 | 1029.3 |
| 20260906075206 | 49 | 113 | 2.6 | 3.5 | 0.00 | 0.00 | 0.00 | 96 | 1029.2 |
| 20260906074701 | 49 | 121 | 2.6 | 3.5 | 0.00 | 0.00 | 0.00 | 96 | 1029.2 |
| 20260906074201 | 50 | 122 | 2.6 | 3.5 | 0.00 | 0.00 | 0.00 | 96 | 1029.4 |
| 20260906073656 | 49 | 120 | 2.6 | 3.5 | 0.00 | 0.00 | 0.00 | 96 | 1029.0 |
| 20260906073151 | 49 | 131 | 3.5 | 3.5 | 0.00 | 0.00 | 0.00 | 96 | 1029.0 |
| 20260906072646 | 49 | 129 | 3.5 | 3.5 | 0.00 | 0.00 | 0.00 | 96 | 1029.2 |
| 20260906072142 | 49 | 122 | 2.6 | 4.3 | 0.00 | 0.00 | 0.00 | 96 | 1029.4 |
| 20260906071638 | 49 | 135 | 2.6 | 3.5 | 0.00 | 0.00 | 0.00 | 96 | 1029.0 |
| 20260906071138 | 49 | 117 | 2.6 | 3.5 | 0.00 | 0.00 | 0.00 | 96 | 1029.3 |
| 20260906070635 | 49 | 117 | 2.6 | 3.5 | 0.00 | 0.00 | 0.00 | 96 | 1029.2 |
| 20260906070130 | 49 | 112 | 1.7 | 3.5 | 0.00 | 0.00 | 0.00 | 96 | 1029.0 |
| 20260906065630 | 49 | 106 | 2.6 | 3.5 | 0.00 | 0.00 | 0.00 | 96 | 1029.3 |
| 20260906065125 | 49 | 114 | 2.6 | 3.5 | 0.00 | 0.00 | 0.00 | 96 | 1029.4 |
| 20260906064621 | 49 | 123 | 2.6 | 3.5 | 0.00 | 0.00 | 0.00 | 96 | 1029.2 |
| 20260906064121 | 49 | 88 | 2.6 | 2.6 | 0.00 | 0.00 | 0.00 | 96 | 1029.0 |
| 20260906063616 | 49 | 107 | 2.6 | 3.5 | 0.00 | 0.00 | 0.00 | 96 | 1029.2 |
| 20260906063112 | 50 | 124 | 2.6 | 3.5 | 0.00 | 0.00 | 0.00 | 95 | 1029.4 |
| 20260906062607 | 50 | 129 | 2.6 | 3.5 | 0.00 | 0.00 | 0.00 | 95 | 1029.4 |
| 20260906062106 | 50 | 112 | 1.7 | 2.6 | 0.00 | 0.00 | 0.00 | 95 | 1029.6 |
| 20260906061603 | 50 | 119 | 1.7 | 2.6 | 0.00 | 0.00 | 0.00 | 95 | 1029.7 |
| 20260906061102 | 50 | 109 | 1.7 | 2.6 | 0.00 | 0.00 | 0.00 | 95 | 1029.4 |
| 20260906060559 | 50 | 129 | 2.6 | 3.5 | 0.00 | 0.00 | 0.00 | 95 | 1029.7 |
| 20260906060056 | 51 | 113 | 1.7 | 1.7 | 0.00 | 0.00 | 0.00 | 95 | 1029.4 |
| 20260906055551 | 51 | 123 | 1.7 | 2.6 | 0.00 | 0.10 | 0.10 | 95 | 1029.3 |
| 20260906055046 | 51 | 130 | 2.6 | 2.6 | 0.00 | 0.10 | 0.10 | 95 | 1029.4 |
| 20260906054541 | 51 | 126 | 2.6 | 3.5 | 0.00 | 0.10 | 0.10 | 95 | 1029.8 |
| 20260906054036 | 51 | 121 | 2.6 | 2.6 | 0.00 | 0.10 | 0.10 | 94 | 1029.7 |
| 20260906053533 | 52 | 121 | 1.7 | 2.6 | 0.00 | 0.10 | 0.10 | 94 | 1029.6 |
| 20260906053028 | 52 | 109 | 0.9 | 1.7 | 0.00 | 0.10 | 0.10 | 94 | 1029.7 |
| 20260906052524 | 52 | 112 | 1.7 | 2.6 | 0.00 | 0.10 | 0.10 | 94 | 1029.7 |
| 20260906052021 | 52 | 115 | 1.7 | 2.6 | 0.00 | 0.10 | 0.10 | 94 | 1029.8 |
| 20260906051516 | 53 | 131 | 1.7 | 3.5 | 0.00 | 0.10 | 0.10 | 94 | 1030.1 |
| 20260906051011 | 53 | 129 | 1.7 | 3.5 | 0.00 | 0.10 | 0.10 | 93 | 1029.8 |
| 20260906050512 | 53 | 131 | 2.6 | 3.5 | 0.00 | 0.10 | 0.10 | 93 | 1030.1 |
| 20260906050006 | 54 | 125 | 1.7 | 3.5 | 0.00 | 0.10 | 0.10 | 93 | 1030.0 |
| 20260906045504 | 54 | 135 | 2.6 | 2.6 | 0.00 | 0.10 | 0.10 | 93 | 1030.0 |
| 20260906045000 | 54 | 132 | 1.7 | 2.6 | 0.00 | 0.10 | 0.10 | 93 | 1030.1 |
| 20260906044455 | 54 | 133 | 2.6 | 3.5 | 0.00 | 0.10 | 0.10 | 92 | 1030.3 |
| 20260906043951 | 54 | 142 | 3.5 | 3.5 | 0.00 | 0.10 | 0.10 | 92 | 1030.3 |
| 20260906043447 | 55 | 147 | 2.6 | 3.5 | 0.00 | 0.10 | 0.10 | 91 | 1030.1 |
| 20260906042943 | 55 | 108 | 0.9 | 2.6 | 0.02 | 0.10 | 0.10 | 91 | 1030.3 |
| 20260906042442 | 55 | 89 | 3.5 | 3.5 | 0.02 | 0.10 | 0.10 | 89 | 1030.3 |
| 20260906041942 | 56 | 120 | 1.7 | 2.6 | 0.02 | 0.10 | 0.10 | 87 | 1030.2 |
| 20260906041438 | 56 | 99 | 2.6 | 2.6 | 0.02 | 0.10 | 0.10 | 85 | 1030.3 |
| 20260906040937 | 57 | 126 | 1.7 | 2.6 | 0.38 | 0.09 | 0.09 | 77 | 1030.3 |
| 20260906040433 | 59 | 46 | 2.6 | 3.5 | 0.57 | 0.09 | 0.09 | 72 | 1030.3 |
| 20260906035928 | 64 | 329 | 0.0 | 4.3 | 0.19 | 0.03 | 0.03 | 64 | 1030.0 |
| 20260906035429 | 64 | 271 | 2.6 | 3.5 | 0.00 | 0.00 | 0.00 | 46 | 1029.7 |
| 20260906034924 | 64 | 312 | 2.6 | 2.6 | 0.00 | 0.00 | 0.00 | 46 | 1029.2 |
| 20260906034419 | 62 | 219 | 0.0 | 3.5 | 0.00 | 0.00 | 0.00 | 47 | 1029.3 |
| 20260906033915 | 60 | 70 | 1.7 | 1.7 | 0.00 | 0.00 | 0.00 | 50 | 1029.2 |
| 20260906033415 | 60 | 94 | 0.9 | 1.7 | 0.00 | 0.00 | 0.00 | 50 | 1029.3 |
| 20260906032910 | 60 | 95 | 1.7 | 2.6 | 0.00 | 0.00 | 0.00 | 50 | 1029.2 |
| 20260906032407 | 60 | 112 | 1.7 | 1.7 | 0.00 | 0.00 | 0.00 | 51 | 1028.9 |
| 20260906031907 | 60 | 92 | 1.7 | 1.7 | 0.00 | 0.00 | 0.00 | 48 | 1028.9 |
| 20260906031402 | 61 | 101 | 1.7 | 1.7 | 0.00 | 0.00 | 0.00 | 49 | 1029.2 |
| 20260906030857 | 61 | 89 | 1.7 | 1.7 | 0.00 | 0.00 | 0.00 | 49 | 1028.9 |
| 20260906030353 | 60 | 86 | 1.7 | 2.6 | 0.00 | 0.00 | 0.00 | 49 | 1028.7 |
| 20260906025852 | 60 | 116 | 1.7 | 2.6 | 0.00 | 0.00 | 0.00 | 50 | 1028.8 |
| 20260906025346 | 60 | 121 | 1.7 | 2.6 | 0.00 | 0.00 | 0.00 | 51 | 1028.8 |
| 20260906024845 | 59 | 104 | 1.7 | 1.7 | 0.00 | 0.00 | 0.00 | 50 | 1028.7 |
| 20260906024345 | 59 | 109 | 1.7 | 2.6 | 0.00 | 0.00 | 0.00 | 49 | 1028.4 |
| 20260906023840 | 60 | 130 | 2.6 | 2.6 | 0.00 | 0.00 | 0.00 | 50 | 1028.4 |
| 20260906023336 | 59 | 104 | 2.6 | 2.6 | 0.00 | 0.00 | 0.00 | 50 | 1028.5 |
| 20260906022831 | 59 | 108 | 2.6 | 2.6 | 0.00 | 0.00 | 0.00 | 51 | 1028.7 |
| 20260906022326 | 59 | 107 | 1.7 | 2.6 | 0.00 | 0.00 | 0.00 | 50 | 1028.7 |
| 20260906021822 | 60 | 103 | 1.7 | 3.5 | 0.00 | 0.00 | 0.00 | 50 | 1028.8 |
| 20260906021321 | 60 | 105 | 1.7 | 2.6 | 0.00 | 0.00 | 0.00 | 48 | 1028.3 |
| 20260906020816 | 60 | 111 | 1.7 | 2.6 | 0.00 | 0.00 | 0.00 | 48 | 1028.4 |
| 20260906020316 | 60 | 127 | 1.7 | 2.6 | 0.00 | 0.00 | 0.00 | 49 | 1028.4 |
| 20260906015816 | 60 | 129 | 2.6 | 2.6 | 0.00 | 0.00 | 0.00 | 48 | 1028.0 |
| 20260906015314 | 61 | 127 | 1.7 | 1.7 | 0.00 | 0.00 | 0.00 | 48 | 1028.5 |
| 20260906014809 | 61 | 89 | 0.9 | 1.7 | 0.00 | 0.00 | 0.00 | 47 | 1028.1 |
| 20260906014304 | 62 | 120 | 1.7 | 1.7 | 0.00 | 0.00 | 0.00 | 47 | 1028.3 |
| 20260906013801 | 62 | 114 | 1.7 | 1.7 | 0.00 | 0.00 | 0.00 | 46 | 1028.1 |
| 20260906013301 | 63 | 137 | 2.6 | 2.6 | 0.00 | 0.00 | 0.00 | 45 | 1028.1 |
| 20260906012756 | 63 | 130 | 1.7 | 1.7 | 0.00 | 0.00 | 0.00 | 45 | 1028.0 |
| 20260906012251 | 64 | 113 | 0.9 | 1.7 | 0.00 | 0.00 | 0.00 | 45 | 1027.9 |
| 20260906011746 | 65 | 140 | 1.7 | 2.6 | 0.00 | 0.00 | 0.00 | 45 | 1028.0 |
| 20260906011246 | 65 | 125 | 1.7 | 1.7 | 0.00 | 0.00 | 0.00 | 43 | 1028.0 |
| 20260906010742 | 66 | 130 | 1.7 | 2.6 | 0.00 | 0.00 | 0.00 | 42 | 1028.4 |
| 20260906010238 | 66 | 147 | 1.7 | 1.7 | 0.00 | 0.00 | 0.00 | 43 | 1028.0 |
| 20260906005733 | 67 | 150 | 1.7 | 1.7 | 0.00 | 0.00 | 0.00 | 41 | 1028.1 |
| 20260906005232 | 67 | 138 | 1.7 | 1.7 | 0.00 | 0.00 | 0.00 | 41 | 1028.1 |
| 20260906004731 | 68 | 105 | 1.7 | 1.7 | 0.00 | 0.00 | 0.00 | 40 | 1028.1 |
| 20260906004227 | 69 | 151 | 1.7 | 2.6 | 0.00 | 0.00 | 0.00 | 40 | 1027.9 |
| 20260906003722 | 69 | 94 | 0.0 | 1.7 | 0.00 | 0.00 | 0.00 | 40 | 1027.9 |
| 20260906003217 | 71 | 133 | 1.7 | 1.7 | 0.00 | 0.00 | 0.00 | 39 | 1028.0 |
| 20260906002717 | 71 | 121 | 1.7 | 1.7 | 0.00 | 0.00 | 0.00 | 38 | 1028.0 |
| 20260906002212 | 72 | 159 | 1.7 | 2.6 | 0.00 | 0.00 | 0.00 | 34 | 1028.1 |
| 20260906001707 | 72 | 164 | 0.0 | 1.7 | 0.00 | 0.00 | 0.00 | 34 | 1028.3 |
| 20260906001207 | 73 | 76 | 0.0 | 0.9 | 0.00 | 0.00 | 0.00 | 33 | 1028.1 |
| 20260906000703 | 74 | 191 | 0.0 | 2.6 | 0.00 | 0.00 | 0.00 | 31 | 1028.0 |
| 20260906000158 | 75 | 233 | 1.7 | 2.6 | 0.00 | 0.00 | 0.00 | 33 | 1027.9 |
| 20260905235657 | 75 | 205 | 1.7 | 2.6 | 0.00 | 0.00 | 0.00 | 31 | 1027.9 |
| 20260905235152 | 75 | 280 | 0.9 | 2.6 | 0.00 | 0.00 | 0.00 | 32 | 1028.0 |
| 20260905234647 | 75 | 155 | 1.7 | 2.6 | 0.00 | 0.00 | 0.00 | 30 | 1027.7 |
| 20260905234143 | 75 | 226 | 1.7 | 1.7 | 0.00 | 0.00 | 0.00 | 33 | 1027.7 |
| 20260905233638 | 75 | 237 | 1.7 | 3.5 | 0.00 | 0.00 | 0.00 | 30 | 1027.7 |
| 20260905233137 | 75 | 189 | 1.7 | 3.5 | 0.00 | 0.00 | 0.00 | 31 | 1027.9 |
| 20260905232633 | 74 | 220 | 1.7 | 3.5 | 0.00 | 0.00 | 0.00 | 31 | 1027.6 |
| 20260905232128 | 73 | 147 | 1.7 | 2.6 | 0.00 | 0.00 | 0.00 | 33 | 1028.0 |
| 20260905231623 | 73 | 160 | 1.7 | 2.6 | 0.00 | 0.00 | 0.00 | 32 | 1027.5 |